Time,TemperatureF,DewpointF,PressureIn,WindDirection,WindDirectionDegrees,WindSpeedMPH,WindSpeedGustMPH,Humidity,HourlyPrecipIn,Conditions,Clouds,dailyrainin,SoftwareType,DateUTC
2013-03-18 00:03:00,43.0,38.0,30.02,NE,48,3.0,7.0,84,0.00,,,0.00,,2013-03-18 04:03:00,
2013-03-18 00:13:00,43.0,38.0,30.02,NE,48,3.0,7.0,84,0.00,,,0.00,,2013-03-18 04:13:00,
2013-03-18 00:23:00,43.0,38.0,30.02,East,86,2.0,9.0,84,0.00,,,0.00,,2013-03-18 04:23:00,
2013-03-18 00:33:00,42.0,38.0,30.02,NNE,22,0.0,11.0,84,0.00,,,0.00,,2013-03-18 04:33:00,
2013-03-18 00:42:00,42.0,38.0,30.02,NNE,22,0.0,11.0,84,0.00,,,0.00,,2013-03-18 04:42:00,
2013-03-18 00:52:00,42.0,38.0,30.02,East,81,1.0,9.0,84,0.00,,,0.00,,2013-03-18 04:52:00,
2013-03-18 01:03:00,41.0,37.0,30.02,NE,48,2.0,9.0,85,0.00,,,0.00,,2013-03-18 05:03:00,
2013-03-18 01:12:00,41.0,37.0,30.02,NE,48,2.0,9.0,85,0.00,,,0.00,,2013-03-18 05:12:00,
2013-03-18 01:22:00,41.0,37.0,30.02,ENE,71,3.0,8.0,84,0.00,,,0.00,,2013-03-18 05:22:00,
2013-03-18 01:32:00,41.0,37.0,30.02,NE,36,3.0,7.0,85,0.00,,,0.00,,2013-03-18 05:32:00,
2013-03-18 01:43:00,41.0,37.0,30.02,NE,36,3.0,7.0,85,0.00,,,0.00,,2013-03-18 05:43:00,
2013-03-18 01:52:00,41.0,37.0,30.02,NNE,20,4.0,7.0,85,0.00,,,0.00,,2013-03-18 05:52:00,
2013-03-18 02:02:00,41.0,37.0,30.02,NNE,12,2.0,8.0,85,0.00,,,0.00,,2013-03-18 06:02:00,
2013-03-18 02:12:00,41.0,37.0,30.02,NNE,12,2.0,8.0,85,0.00,,,0.00,,2013-03-18 06:12:00,
2013-03-18 02:22:00,40.0,36.0,30.02,NE,37,2.0,8.0,85,0.00,,,0.00,,2013-03-18 06:22:00,
2013-03-18 02:32:00,40.0,36.0,30.01,NNE,33,4.0,8.0,86,0.00,,,0.00,,2013-03-18 06:32:00,
2013-03-18 02:42:00,40.0,36.0,30.01,NNE,33,4.0,8.0,86,0.00,,,0.00,,2013-03-18 06:42:00,
2013-03-18 02:52:00,40.0,36.0,30.01,ENE,65,1.0,5.0,86,0.00,,,0.00,,2013-03-18 06:52:00,
2013-03-18 03:02:00,39.0,35.0,30.01,ENE,58,2.0,5.0,86,0.00,,,0.00,,2013-03-18 07:02:00,
2013-03-18 03:12:00,39.0,35.0,30.01,ENE,58,2.0,5.0,86,0.00,,,0.00,,2013-03-18 07:12:00,
2013-03-18 03:22:00,39.0,35.0,30.02,West,280,3.0,7.0,87,0.00,,,0.00,,2013-03-18 07:22:00,
2013-03-18 03:33:00,38.0,34.0,30.02,NE,56,3.0,6.0,87,0.00,,,0.00,,2013-03-18 07:33:00,
2013-03-18 03:42:00,38.0,34.0,30.02,NE,56,3.0,6.0,87,0.00,,,0.00,,2013-03-18 07:42:00,
2013-03-18 03:52:00,38.0,34.0,30.01,NE,39,1.0,6.0,87,0.00,,,0.00,,2013-03-18 07:52:00,
2013-03-18 04:02:00,38.0,34.0,30.01,ENE,66,1.0,7.0,87,0.00,,,0.00,,2013-03-18 08:02:00,
2013-03-18 04:12:00,38.0,34.0,30.01,ENE,66,1.0,7.0,87,0.00,,,0.00,,2013-03-18 08:12:00,
2013-03-18 04:22:00,38.0,34.0,30.01,NE,47,5.0,8.0,87,0.00,,,0.00,,2013-03-18 08:22:00,
2013-03-18 04:32:00,38.0,35.0,30.01,NNE,22,3.0,5.0,88,0.00,,,0.00,,2013-03-18 08:32:00,
2013-03-18 04:43:00,38.0,35.0,30.01,NNE,22,3.0,5.0,88,0.00,,,0.00,,2013-03-18 08:43:00,
2013-03-18 04:52:00,37.0,34.0,30.01,ENE,70,2.0,5.0,88,0.00,,,0.00,,2013-03-18 08:52:00,
2013-03-18 05:02:00,38.0,35.0,30.01,ENE,66,0.0,1.0,89,0.00,,,0.00,,2013-03-18 09:02:00,
2013-03-18 05:12:00,38.0,35.0,30.01,ENE,66,0.0,1.0,89,0.00,,,0.00,,2013-03-18 09:12:00,
2013-03-18 05:22:00,38.0,35.0,30.01,East,80,0.0,4.0,89,0.00,,,0.00,,2013-03-18 09:22:00,
2013-03-18 05:33:00,37.0,34.0,30.01,East,87,0.0,8.0,88,0.00,,,0.00,,2013-03-18 09:33:00,
2013-03-18 05:43:00,37.0,34.0,30.01,East,87,0.0,8.0,88,0.00,,,0.00,,2013-03-18 09:43:00,
2013-03-18 05:53:00,37.0,34.0,30.01,East,96,0.0,3.0,89,0.00,,,0.00,,2013-03-18 09:53:00,
2013-03-18 06:03:00,37.0,34.0,30.01,East,97,0.0,3.0,89,0.00,,,0.00,,2013-03-18 10:03:00,
2013-03-18 06:13:00,37.0,34.0,30.01,East,97,0.0,3.0,89,0.00,,,0.00,,2013-03-18 10:13:00,
2013-03-18 06:23:00,37.0,34.0,30.00,NE,48,0.0,7.0,88,0.00,,,0.00,,2013-03-18 10:23:00,
2013-03-18 06:33:00,37.0,34.0,30.01,East,80,3.0,8.0,88,0.00,,,0.00,,2013-03-18 10:33:00,
2013-03-18 06:42:00,37.0,34.0,30.01,East,80,3.0,8.0,88,0.00,,,0.00,,2013-03-18 10:42:00,
2013-03-18 06:52:00,37.0,34.0,30.01,ESE,111,0.0,3.0,88,0.00,,,0.00,,2013-03-18 10:52:00,
2013-03-18 07:03:00,37.0,34.0,30.01,East,99,0.0,5.0,88,0.00,,,0.00,,2013-03-18 11:03:00,
2013-03-18 07:13:00,37.0,34.0,30.01,East,99,0.0,5.0,88,0.00,,,0.00,,2013-03-18 11:13:00,
2013-03-18 07:22:00,37.0,34.0,30.01,ESE,119,4.0,8.0,88,0.00,,,0.00,,2013-03-18 11:22:00,
2013-03-18 07:32:00,36.0,33.0,30.01,NE,45,3.0,6.0,87,0.00,,,0.00,,2013-03-18 11:32:00,
2013-03-18 07:42:00,36.0,33.0,30.01,NE,45,3.0,6.0,87,0.00,,,0.00,,2013-03-18 11:42:00,
2013-03-18 07:52:00,36.0,33.0,30.02,ENE,69,3.0,5.0,88,0.00,,,0.00,,2013-03-18 11:52:00,
2013-03-18 08:03:00,36.0,33.0,30.03,East,95,2.0,5.0,88,0.00,,,0.00,,2013-03-18 12:03:00,
2013-03-18 08:12:00,36.0,33.0,30.03,East,95,2.0,5.0,88,0.00,,,0.00,,2013-03-18 12:12:00,
2013-03-18 08:22:00,36.0,33.0,30.02,SE,131,1.0,7.0,87,0.00,,,0.00,,2013-03-18 12:22:00,
2013-03-18 08:32:00,36.0,33.0,30.02,NE,40,0.0,3.0,88,0.00,,,0.00,,2013-03-18 12:32:00,
2013-03-18 08:43:00,36.0,33.0,30.02,NE,40,0.0,3.0,88,0.00,,,0.00,,2013-03-18 12:43:00,
2013-03-18 08:52:00,36.0,33.0,30.02,ENE,60,7.0,11.0,87,0.00,,,0.00,,2013-03-18 12:52:00,
2013-03-18 09:03:00,35.0,32.0,30.02,North,10,3.0,9.0,89,0.00,,,0.00,,2013-03-18 13:03:00,
2013-03-18 09:12:00,35.0,32.0,30.02,North,10,3.0,9.0,89,0.00,,,0.00,,2013-03-18 13:12:00,
2013-03-18 09:22:00,35.0,32.0,30.01,NNE,25,2.0,6.0,89,0.00,,,0.00,,2013-03-18 13:22:00,
2013-03-18 09:33:00,35.0,32.0,30.02,NE,50,3.0,11.0,88,0.00,,,0.00,,2013-03-18 13:33:00,
2013-03-18 09:42:00,35.0,32.0,30.02,NE,50,3.0,11.0,88,0.00,,,0.00,,2013-03-18 13:42:00,
2013-03-18 09:52:00,35.0,32.0,30.01,ENE,64,3.0,8.0,88,0.00,,,0.00,,2013-03-18 13:52:00,
2013-03-18 10:02:00,34.0,31.0,30.02,ENE,76,1.0,8.0,88,0.00,,,0.00,,2013-03-18 14:02:00,
2013-03-18 10:12:00,34.0,31.0,30.02,ENE,76,1.0,8.0,88,0.00,,,0.00,,2013-03-18 14:12:00,
2013-03-18 10:22:00,34.0,31.0,30.01,NE,39,3.0,6.0,88,0.00,,,0.00,,2013-03-18 14:22:00,
2013-03-18 10:32:00,35.0,32.0,30.02,ENE,74,0.0,2.0,89,0.00,,,0.00,,2013-03-18 14:32:00,
2013-03-18 10:42:00,35.0,32.0,30.02,ENE,74,0.0,2.0,89,0.00,,,0.00,,2013-03-18 14:42:00,
2013-03-18 10:52:00,35.0,32.0,30.01,ENE,74,0.0,2.0,90,0.00,,,0.00,,2013-03-18 14:52:00,
2013-03-18 11:02:00,36.0,33.0,30.01,SE,145,0.0,3.0,90,0.00,,,0.00,,2013-03-18 15:02:00,
2013-03-18 11:12:00,36.0,33.0,30.01,SE,145,0.0,3.0,90,0.00,,,0.00,,2013-03-18 15:12:00,
2013-03-18 11:22:00,36.0,33.0,30.02,SE,145,0.0,0.0,90,0.00,,,0.00,,2013-03-18 15:22:00,
2013-03-18 11:33:00,36.0,33.0,30.01,SSW,204,0.0,2.0,90,0.01,,,0.01,,2013-03-18 15:33:00,
2013-03-18 11:43:00,36.0,33.0,30.01,SSW,204,0.0,2.0,90,0.01,,,0.01,,2013-03-18 15:43:00,
2013-03-18 11:52:00,36.0,33.0,30.01,SSW,204,0.0,2.0,90,0.01,,,0.01,,2013-03-18 15:52:00,
2013-03-18 12:03:00,37.0,34.0,29.99,NNE,30,2.0,4.0,90,-99.99,,,-99.99,,2013-03-18 16:03:00,
2013-03-18 12:12:00,37.0,34.0,29.99,NNE,30,2.0,4.0,90,-99.99,,,-99.99,,2013-03-18 16:12:00,
2013-03-18 12:23:00,37.0,34.0,29.99,NW,310,0.0,3.0,90,-99.99,,,-99.99,,2013-03-18 16:23:00,
2013-03-18 12:33:00,37.0,34.0,29.98,West,269,1.0,3.0,90,-99.99,,,-99.99,,2013-03-18 16:33:00,
2013-03-18 12:42:00,37.0,34.0,29.98,West,269,1.0,3.0,90,-99.99,,,-99.99,,2013-03-18 16:42:00,
2013-03-18 12:52:00,37.0,34.0,29.98,West,269,0.0,1.0,89,-99.99,,,-99.99,,2013-03-18 16:52:00,
2013-03-18 13:03:00,37.0,34.0,29.98,South,189,1.0,3.0,89,0.00,,,-99.99,,2013-03-18 17:03:00,
2013-03-18 13:12:00,37.0,34.0,29.98,South,189,1.0,3.0,89,0.00,,,-99.99,,2013-03-18 17:12:00,
2013-03-18 13:22:00,37.0,34.0,29.98,WSW,249,0.0,4.0,90,0.00,,,-99.99,,2013-03-18 17:22:00,
2013-03-18 13:33:00,37.0,34.0,29.96,NW,324,0.0,2.0,90,0.00,,,-99.99,,2013-03-18 17:33:00,
2013-03-18 13:42:00,37.0,34.0,29.96,NW,324,0.0,2.0,90,0.00,,,-99.99,,2013-03-18 17:42:00,
2013-03-18 13:52:00,37.0,34.0,29.96,WSW,249,0.0,4.0,90,0.00,,,-99.99,,2013-03-18 17:52:00,
2013-03-18 14:02:00,37.0,34.0,29.95,NW,305,0.0,4.0,90,0.00,,,-99.99,,2013-03-18 18:02:00,
2013-03-18 14:12:00,37.0,34.0,29.95,NW,305,0.0,4.0,90,0.00,,,-99.99,,2013-03-18 18:12:00,
2013-03-18 14:22:00,37.0,34.0,29.95,NW,305,0.0,2.0,90,0.00,,,-99.99,,2013-03-18 18:22:00,
2013-03-18 14:32:00,37.0,34.0,29.93,WNW,303,0.0,2.0,90,0.00,,,-99.99,,2013-03-18 18:32:00,
2013-03-18 14:42:00,37.0,34.0,29.93,WNW,303,0.0,2.0,90,0.00,,,-99.99,,2013-03-18 18:42:00,
2013-03-18 14:52:00,37.0,34.0,29.92,NW,307,0.0,3.0,90,0.00,,,-99.99,,2013-03-18 18:52:00,
2013-03-18 15:03:00,37.0,35.0,29.91,NW,307,0.0,1.0,91,0.00,,,-99.99,,2013-03-18 19:03:00,
2013-03-18 15:12:00,37.0,35.0,29.91,NW,307,0.0,1.0,91,0.00,,,-99.99,,2013-03-18 19:12:00,
2013-03-18 15:22:00,38.0,36.0,29.91,NW,307,0.0,1.0,92,0.00,,,-99.99,,2013-03-18 19:22:00,
2013-03-18 15:33:00,39.0,37.0,29.90,NW,306,1.0,2.0,93,0.00,,,-99.99,,2013-03-18 19:33:00,
2013-03-18 15:42:00,39.0,37.0,29.90,NW,306,1.0,2.0,93,0.00,,,-99.99,,2013-03-18 19:42:00,
2013-03-18 15:52:00,39.0,37.0,29.89,WSW,254,0.0,3.0,92,0.00,,,-99.99,,2013-03-18 19:52:00,
2013-03-18 16:03:00,39.0,37.0,29.88,SSW,213,1.0,3.0,92,0.02,,,-99.99,,2013-03-18 20:03:00,
2013-03-18 16:12:00,39.0,37.0,29.88,SSW,213,1.0,3.0,92,0.02,,,-99.99,,2013-03-18 20:12:00,
2013-03-18 16:23:00,40.0,38.0,29.87,West,265,2.0,4.0,93,0.02,,,-99.99,,2013-03-18 20:23:00,
2013-03-18 16:33:00,40.0,38.0,29.88,West,265,0.0,1.0,93,0.02,,,-99.99,,2013-03-18 20:33:00,
2013-03-18 16:42:00,40.0,38.0,29.88,West,265,0.0,1.0,93,0.02,,,-99.99,,2013-03-18 20:42:00,
2013-03-18 16:52:00,40.0,38.0,29.88,West,265,0.0,2.0,92,0.03,,,-99.99,,2013-03-18 20:52:00,
2013-03-18 17:02:00,40.0,38.0,29.86,West,265,2.0,3.0,92,0.01,,,-99.99,,2013-03-18 21:02:00,
2013-03-18 17:12:00,40.0,38.0,29.86,West,265,2.0,3.0,92,0.01,,,-99.99,,2013-03-18 21:12:00,
2013-03-18 17:22:00,40.0,38.0,29.86,NE,49,1.0,3.0,93,0.01,,,-99.99,,2013-03-18 21:22:00,
2013-03-18 17:33:00,40.0,38.0,29.85,NE,51,0.0,2.0,93,0.01,,,-99.99,,2013-03-18 21:33:00,
2013-03-18 17:43:00,40.0,38.0,29.85,NE,51,0.0,2.0,93,0.01,,,-99.99,,2013-03-18 21:43:00,
2013-03-18 17:52:00,40.0,38.0,29.89,WNW,303,7.0,12.0,93,0.01,,,-99.99,,2013-03-18 21:52:00,
2013-03-18 18:03:00,41.0,39.0,29.89,SW,216,1.0,4.0,93,0.16,,,-99.99,,2013-03-18 22:03:00,
2013-03-18 18:13:00,41.0,39.0,29.89,SW,216,1.0,4.0,93,0.16,,,-99.99,,2013-03-18 22:13:00,
2013-03-18 18:23:00,40.0,38.0,29.90,SW,216,0.0,3.0,92,0.18,,,-99.99,,2013-03-18 22:23:00,
2013-03-18 18:33:00,39.0,37.0,29.91,SW,215,2.0,3.0,92,0.21,,,-99.99,,2013-03-18 22:33:00,
2013-03-18 18:42:00,39.0,37.0,29.91,SW,215,2.0,3.0,92,0.21,,,-99.99,,2013-03-18 22:42:00,
2013-03-18 18:52:00,40.0,38.0,29.90,NW,326,0.0,5.0,93,0.22,,,-99.99,,2013-03-18 22:52:00,
2013-03-18 19:03:00,40.0,38.0,29.91,SSW,195,0.0,4.0,94,0.12,,,-99.99,,2013-03-18 23:03:00,
2013-03-18 19:12:00,40.0,38.0,29.91,SSW,195,0.0,4.0,94,0.12,,,-99.99,,2013-03-18 23:12:00,
2013-03-18 19:23:00,40.0,38.0,29.90,SW,217,2.0,3.0,94,0.12,,,-99.99,,2013-03-18 23:23:00,
2013-03-18 19:33:00,41.0,39.0,29.89,ENE,60,0.0,3.0,94,0.11,,,-99.99,,2013-03-18 23:33:00,
2013-03-18 19:42:00,41.0,39.0,29.89,ENE,60,0.0,3.0,94,0.11,,,-99.99,,2013-03-18 23:42:00,
2013-03-18 19:52:00,41.0,39.0,29.89,South,184,0.0,3.0,94,0.10,,,-99.99,,2013-03-18 23:52:00,
2013-03-18 20:03:00,41.0,39.0,29.88,ENE,68,1.0,5.0,94,0.08,,,-99.99,,2013-03-19 00:03:00,
2013-03-18 20:12:00,41.0,39.0,29.88,ENE,68,1.0,5.0,94,0.08,,,-99.99,,2013-03-19 00:12:00,
2013-03-18 20:23:00,41.0,39.0,29.88,NE,39,0.0,3.0,94,0.07,,,-99.99,,2013-03-19 00:23:00,
2013-03-18 20:32:00,41.0,39.0,29.86,NE,44,0.0,1.0,94,0.05,,,-99.99,,2013-03-19 00:32:00,
2013-03-18 20:42:00,41.0,39.0,29.86,NE,44,0.0,1.0,94,0.05,,,-99.99,,2013-03-19 00:42:00,
2013-03-18 20:52:00,42.0,41.0,29.86,NE,44,0.0,3.0,95,0.04,,,-99.99,,2013-03-19 00:52:00,
2013-03-18 21:02:00,42.0,41.0,29.85,NE,44,0.0,2.0,95,0.02,,,-99.99,,2013-03-19 01:02:00,
2013-03-18 21:12:00,42.0,41.0,29.85,NE,44,0.0,2.0,95,0.02,,,-99.99,,2013-03-19 01:12:00,
2013-03-18 21:22:00,42.0,41.0,29.81,ENE,62,4.0,6.0,95,0.01,,,-99.99,,2013-03-19 01:22:00,
2013-03-18 21:33:00,44.0,43.0,29.83,East,100,2.0,5.0,95,0.01,,,-99.99,,2013-03-19 01:33:00,
2013-03-18 21:43:00,44.0,43.0,29.83,East,100,2.0,5.0,95,0.01,,,-99.99,,2013-03-19 01:43:00,
2013-03-18 21:52:00,44.0,43.0,29.84,East,100,0.0,1.0,95,0.01,,,-99.99,,2013-03-19 01:52:00,
2013-03-18 22:03:00,43.0,41.0,29.85,East,100,0.0,1.0,94,0.00,,,-99.99,,2013-03-19 02:03:00,
2013-03-18 22:13:00,43.0,41.0,29.85,East,100,0.0,1.0,94,0.00,,,-99.99,,2013-03-19 02:13:00,
2013-03-18 22:22:00,42.0,40.0,29.85,East,79,0.0,4.0,94,0.00,,,-99.99,,2013-03-19 02:22:00,
2013-03-18 22:33:00,42.0,40.0,29.84,East,79,0.0,0.0,94,0.00,,,-99.99,,2013-03-19 02:33:00,
2013-03-18 22:42:00,42.0,40.0,29.84,East,79,0.0,0.0,94,0.00,,,-99.99,,2013-03-19 02:42:00,
2013-03-18 22:52:00,42.0,40.0,29.83,East,79,0.0,0.0,94,0.00,,,-99.99,,2013-03-19 02:52:00,
2013-03-18 23:02:00,41.0,39.0,29.84,East,79,0.0,0.0,93,0.00,,,-99.99,,2013-03-19 03:02:00,
2013-03-18 23:12:00,41.0,39.0,29.84,East,79,0.0,0.0,93,0.00,,,-99.99,,2013-03-19 03:12:00,
2013-03-18 23:22:00,41.0,39.0,29.85,East,79,0.0,0.0,93,0.00,,,-99.99,,2013-03-19 03:22:00,
2013-03-18 23:33:00,40.0,38.0,29.83,East,79,0.0,2.0,93,0.00,,,-99.99,,2013-03-19 03:33:00,
2013-03-18 23:43:00,40.0,38.0,29.83,East,79,0.0,2.0,93,0.00,,,-99.99,,2013-03-19 03:43:00,
2013-03-18 23:53:00,40.0,38.0,29.84,East,79,0.0,0.0,93,0.00,,,-99.99,,2013-03-19 03:53:00,